Naples, Italy

9:21 AM CEST on April 27, 2017 (GMT +0200)
Capodichino Mil

Weather History for LIRN - November, 2013

Change the Weather History Date:

Monday, November 4, 2013

  Actual Average Record
Temperature  
Mean Temperature 66 °F -  
Max Temperature 73 °F 62 °F 77 °F (2008)
Min Temperature 60 °F 45 °F 39 °F (2006)
Cooling Degree Days 2    
Growing Degree Days 16 (Base 50)    
Moisture  
Dew Point 60 °F    
Average Humidity 72    
Maximum Humidity 88    
Minimum Humidity 61    
Precipitation  
Precipitation 0.00 in 0.21 in - ()
Sea Level Pressure  
Sea Level Pressure 29.83 in    
Wind  
Wind Speed 7 mph ()    
Max Wind Speed 17 mph    
Max Gust Speed 30 mph    
Visibility 6.2 miles    
Events      
Averages and records for this station are not official NWS values.
T = Trace of Precipitation, MM = Missing Value Source: Averaged Metar Reports

Daily Weather History Graph

Daily Weather History Graph

Search for Another Location

Airport or City:

Trip Planner

Search our weather history database for the weather conditions in past years. The results will help you decide how hot, cold, wet, or windy it might be!

Date:

Astronomy

Nov. 04, 2013 Rise Set
Actual Time 6:36 AM CET 4:55 PM CET
Civil Twilight 6:08 AM CET 5:23 PM CET
Nautical Twilight 5:35 AM CET 5:56 PM CET
Astronomical Twilight 5:03 AM CET 6:28 PM CET
Moon 7:28 AM CET (11/4) 5:44 PM CET (11/4)
Length of Visible Light 11h 15m
Length of Day
10h 18m
New Moon, 1% of the Moon is Illuminated
Nov 4
New Moon
Nov 10
First Quarter
Nov 17
Full
Nov 25
Last Quarter
Dec 3
New

Hourly Weather History & Observations

Time (CET) Temp. Dew Point Humidity Pressure Visibility Wind Dir Wind Speed Gust Speed Precip Events Conditions
12:20 AM 66.2 °F 59.0 °F 78% 29.98 in 6.2 mi East 4.6 mph - N/A   Partly Cloudy
12:50 AM 66.2 °F 59.0 °F 78% 29.98 in 6.2 mi South 2.3 mph - N/A   Partly Cloudy
1:20 AM 64.4 °F 59.0 °F 83% 29.98 in 6.2 mi SE 2.3 mph - N/A   Partly Cloudy
1:50 AM 60.8 °F 55.4 °F 82% 29.98 in 6.2 mi SW 3.5 mph - N/A   Partly Cloudy
2:20 AM 60.8 °F 55.4 °F 82% 29.98 in 6.2 mi Variable 2.3 mph - N/A   Partly Cloudy
2:50 AM 60.8 °F 57.2 °F 88% 29.95 in 6.2 mi WSW 3.5 mph - N/A   Partly Cloudy
3:20 AM 60.8 °F 55.4 °F 82% 29.98 in 6.2 mi SSW 3.5 mph - N/A   Partly Cloudy
3:50 AM 64.4 °F 59.0 °F 83% 29.95 in 6.2 mi SW 3.5 mph - N/A   Scattered Clouds
4:20 AM 66.2 °F 60.8 °F 83% 29.95 in 6.2 mi SW 3.5 mph - N/A   Scattered Clouds
4:50 AM 66.2 °F 60.8 °F 83% 29.95 in 6.2 mi SW 3.5 mph - N/A   Scattered Clouds
5:20 AM 68.0 °F 60.8 °F 78% 29.92 in 6.2 mi SW 4.6 mph - N/A   Scattered Clouds
5:50 AM 68.0 °F 60.8 °F 78% 29.92 in 6.2 mi SSW 5.8 mph - N/A   Scattered Clouds
6:20 AM 68.0 °F 60.8 °F 78% 29.92 in 6.2 mi SSW 8.1 mph - N/A   Mostly Cloudy
6:50 AM 69.8 °F 60.8 °F 73% 29.92 in 6.2 mi SSW 5.8 mph - N/A   Mostly Cloudy
7:20 AM 69.8 °F 60.8 °F 73% 29.92 in 6.2 mi SW 6.9 mph - N/A   Mostly Cloudy
7:50 AM 69.8 °F 60.8 °F 73% 29.92 in 6.2 mi SSW 8.1 mph - N/A   Scattered Clouds
8:20 AM 69.8 °F 60.8 °F 73% 29.92 in 6.2 mi SW 6.9 mph - N/A   Scattered Clouds
8:50 AM 71.6 °F 60.8 °F 69% 29.92 in 6.2 mi SSW 10.4 mph - N/A   Scattered Clouds
9:20 AM 71.6 °F 60.8 °F 69% 29.92 in 6.2 mi SW 6.9 mph - N/A   Scattered Clouds
9:50 AM 73.4 °F 62.6 °F 69% 29.92 in 6.2 mi SSW 11.5 mph - N/A   Scattered Clouds
10:20 AM 73.4 °F 62.6 °F 69% 29.92 in 6.2 mi SSW 10.4 mph - N/A   Scattered Clouds
10:50 AM 73.4 °F 60.8 °F 65% 29.89 in 6.2 mi SSW 11.5 mph - N/A   Scattered Clouds
11:20 AM 71.6 °F 60.8 °F 69% 29.89 in 6.2 mi SSW 11.5 mph - N/A   Scattered Clouds
11:50 AM 71.6 °F 60.8 °F 69% 29.86 in 6.2 mi SSW 11.5 mph - N/A   Scattered Clouds
12:20 PM 71.6 °F 59.0 °F 64% 29.86 in 6.2 mi SSW 11.5 mph - N/A   Scattered Clouds
12:50 PM 73.4 °F 59.0 °F 61% 29.83 in 6.2 mi SSW 11.5 mph 23.0 mph N/A   Scattered Clouds
1:20 PM 73.4 °F 59.0 °F 61% 29.83 in 6.2 mi SSW 12.7 mph - N/A   Scattered Clouds
1:50 PM 71.6 °F 60.8 °F 69% 29.80 in 6.2 mi SSW 12.7 mph 25.3 mph N/A   Scattered Clouds
2:20 PM 71.6 °F 60.8 °F 69% 29.80 in 6.2 mi SSW 11.5 mph - N/A   Scattered Clouds
2:50 PM 71.6 °F 60.8 °F 69% 29.80 in 6.2 mi SSW 10.4 mph - N/A   Scattered Clouds
3:20 PM 71.6 °F 59.0 °F 64% 29.77 in 6.2 mi SSW 10.4 mph - N/A   Scattered Clouds
3:50 PM 69.8 °F 59.0 °F 68% 29.77 in 6.2 mi SSW 11.5 mph - N/A   Scattered Clouds
4:20 PM 69.8 °F 59.0 °F 68% 29.77 in 6.2 mi SSW 11.5 mph - N/A   Scattered Clouds
4:50 PM 69.8 °F 59.0 °F 68% 29.77 in 6.2 mi SSW 10.4 mph - N/A   Mostly Cloudy
5:20 PM 69.8 °F 60.8 °F 73% 29.74 in 6.2 mi SSW 11.5 mph - N/A   Mostly Cloudy
5:50 PM 69.8 °F 59.0 °F 68% 29.74 in 6.2 mi SSW 11.5 mph - N/A   Mostly Cloudy
6:20 PM 69.8 °F 59.0 °F 68% 29.74 in 6.2 mi SSW 11.5 mph - N/A   Scattered Clouds
6:50 PM 69.8 °F 57.2 °F 64% 29.71 in 6.2 mi SSW 13.8 mph - N/A   Scattered Clouds
7:20 PM 69.8 °F 59.0 °F 68% 29.71 in 6.2 mi SSW 11.5 mph - N/A   Scattered Clouds
7:50 PM 69.8 °F 59.0 °F 68% 29.71 in 6.2 mi SSW 10.4 mph - N/A   Scattered Clouds
8:20 PM 69.8 °F 59.0 °F 68% 29.68 in 6.2 mi SSW 13.8 mph - N/A   Scattered Clouds
8:50 PM 69.8 °F 59.0 °F 68% 29.68 in 6.2 mi SSW 12.7 mph - N/A   Scattered Clouds
9:20 PM 69.8 °F 60.8 °F 73% 29.68 in 6.2 mi SSW 12.7 mph 24.2 mph N/A   Scattered Clouds
9:50 PM 69.8 °F 59.0 °F 68% 29.65 in 6.2 mi SSW 15.0 mph 27.6 mph N/A   Partly Cloudy
10:20 PM 69.8 °F 59.0 °F 68% 29.65 in 6.2 mi SSW 11.5 mph 25.3 mph N/A   Partly Cloudy
10:50 PM 69.8 °F 59.0 °F 68% 29.62 in 6.2 mi SSW 17.3 mph 29.9 mph N/A   Mostly Cloudy
11:20 PM 69.8 °F 59.0 °F 68% 29.62 in 6.2 mi SSW 15.0 mph 27.6 mph N/A   Scattered Clouds
11:50 PM 69.8 °F 60.8 °F 73% 29.59 in 6.2 mi SSW 16.1 mph 28.8 mph N/A   Mostly Cloudy